| time (UTC) | temp C | wind direction | speed KPH | gust KPH | rain 1hr cm | rain 24hr cm | rain mn cm | humidity % | barometer mb |
| 20260504110704 | 12 | 210 | 14.5 | 20.9 | 0.00 | 0.00 | 0.00 | 69 | 1014.2 |
| 20260504110204 | 12 | 193 | 16.1 | 20.9 | 0.00 | 0.00 | 0.00 | 69 | 1014.4 |
| 20260504100203 | 13 | 218 | 17.7 | 22.5 | 0.00 | 0.00 | 0.00 | 68 | 1014.4 |
| 20260504081705 | 13 | 194 | 17.7 | 32.2 | 0.00 | 0.00 | 0.00 | 68 | 1014.2 |
| 20260504081206 | 13 | 197 | 17.7 | 32.2 | 0.00 | 0.00 | 0.00 | 70 | 1014.2 |
| 20260504080706 | 13 | 199 | 12.9 | 24.1 | 0.00 | 0.00 | 0.00 | 69 | 1014.2 |
| 20260504080205 | 13 | 198 | 19.3 | 27.4 | 0.00 | 0.00 | 0.00 | 70 | 1014.2 |
| 20260504070206 | 13 | 213 | 17.7 | 24.1 | 0.00 | 0.00 | 0.00 | 72 | 1014.5 |
| 20260504060206 | 12 | 195 | 14.5 | 22.5 | 0.00 | 0.00 | 0.00 | 71 | 1014.6 |
| 20260504050706 | 10 | 198 | 14.5 | 20.9 | 0.00 | 0.00 | 0.00 | 76 | 1014.4 |
| 20260504050206 | 10 | 198 | 11.3 | 19.3 | 0.00 | 0.00 | 0.00 | 75 | 1014.4 |
| 20260504045205 | 10 | 203 | 14.5 | 19.3 | 0.00 | 0.00 | 0.00 | 73 | 1014.5 |
| 20260504044706 | 10 | 196 | 16.1 | 22.5 | 0.00 | 0.00 | 0.00 | 72 | 1014.4 |
| 20260504044205 | 10 | 206 | 14.5 | 19.3 | 0.00 | 0.00 | 0.00 | 73 | 1014.5 |
| 20260504043705 | 10 | 204 | 14.5 | 20.9 | 0.00 | 0.00 | 0.00 | 74 | 1014.5 |
| 20260504043205 | 10 | 209 | 14.5 | 19.3 | 0.00 | 0.00 | 0.00 | 74 | 1014.5 |
| 20260504042705 | 9 | 202 | 14.5 | 19.3 | 0.00 | 0.00 | 0.00 | 75 | 1014.4 |
| 20260504041705 | 9 | 205 | 11.3 | 19.3 | 0.00 | 0.00 | 0.00 | 76 | 1014.3 |
| 20260504041205 | 9 | 212 | 11.3 | 14.5 | 0.00 | 0.00 | 0.00 | 77 | 1014.4 |
| 20260504040205 | 8 | 212 | 12.9 | 16.1 | 0.00 | 0.00 | 0.00 | 78 | 1014.4 |
| 20260504035705 | 8 | 214 | 11.3 | 14.5 | 0.00 | 0.00 | 0.00 | 78 | 1014.3 |
| 20260504035205 | 8 | 206 | 11.3 | 14.5 | 0.00 | 0.00 | 0.00 | 79 | 1014.2 |
| 20260504034706 | 8 | 212 | 14.5 | 19.3 | 0.00 | 0.00 | 0.00 | 80 | 1014.3 |
| 20260504034205 | 8 | 205 | 14.5 | 19.3 | 0.00 | 0.00 | 0.00 | 79 | 1014.2 |
| 20260504033705 | 8 | 202 | 11.3 | 16.1 | 0.00 | 0.00 | 0.00 | 78 | 1014.2 |
| 20260504033205 | 8 | 199 | 8.0 | 11.3 | 0.00 | 0.00 | 0.00 | 77 | 1014.2 |
| 20260504031705 | 8 | 122 | 1.6 | 3.2 | 0.00 | 0.00 | 0.00 | 77 | 1014.0 |
| 20260504031205 | 8 | 25 | 0.0 | 1.6 | 0.00 | 0.00 | 0.00 | 76 | 1014.0 |
| 20260504030705 | 8 | 25 | 0.0 | 1.6 | 0.00 | 0.00 | 0.00 | 76 | 1014.1 |
| 20260504025705 | 8 | 25 | 0.0 | 1.6 | 0.00 | 0.00 | 0.00 | 76 | 1014.0 |
| 20260504025205 | 8 | 25 | 0.0 | 0.0 | 0.00 | 0.00 | 0.00 | 76 | 1014.0 |
| 20260504024705 | 8 | 25 | 1.6 | 3.2 | 0.00 | 0.00 | 0.00 | 76 | 1014.0 |
| 20260504024205 | 8 | 25 | 1.6 | 3.2 | 0.00 | 0.00 | 0.00 | 75 | 1014.0 |
| 20260504022705 | 8 | 15 | 0.0 | 0.0 | 0.00 | 0.00 | 0.00 | 73 | 1014.0 |
| 20260504022205 | 8 | 15 | 0.0 | 0.0 | 0.00 | 0.00 | 0.00 | 72 | 1014.0 |
| 20260504021705 | 8 | 15 | 0.0 | 1.6 | 0.00 | 0.00 | 0.00 | 72 | 1013.9 |
| 20260504021205 | 8 | 15 | 0.0 | 1.6 | 0.00 | 0.00 | 0.00 | 72 | 1013.9 |
| 20260504020705 | 9 | 15 | 0.0 | 1.6 | 0.00 | 0.00 | 0.00 | 72 | 1013.9 |
| 20260504020205 | 9 | 15 | 0.0 | 0.0 | 0.00 | 0.00 | 0.00 | 72 | 1013.9 |
| 20260504015705 | 9 | 15 | 0.0 | 0.0 | 0.00 | 0.00 | 0.00 | 72 | 1014.0 |
| 20260504015205 | 9 | 15 | 0.0 | 0.0 | 0.00 | 0.00 | 0.00 | 72 | 1014.0 |
| 20260504014705 | 10 | 15 | 0.0 | 0.0 | 0.00 | 0.00 | 0.00 | 71 | 1013.9 |
| 20260504013205 | 10 | 15 | 0.0 | 1.6 | 0.00 | 0.00 | 0.00 | 67 | 1013.8 |
| 20260504012705 | 10 | 331 | 0.0 | 0.0 | 0.00 | 0.00 | 0.00 | 67 | 1013.7 |
| 20260504012206 | 10 | 321 | 0.0 | 1.6 | 0.00 | 0.00 | 0.00 | 68 | 1013.6 |
| 20260504011705 | 10 | 321 | 0.0 | 0.0 | 0.00 | 0.00 | 0.00 | 67 | 1013.5 |
| 20260504010205 | 11 | 291 | 0.0 | 1.6 | 0.00 | 0.00 | 0.00 | 64 | 1013.6 |
| 20260504005705 | 11 | 290 | 0.0 | 0.0 | 0.00 | 0.00 | 0.00 | 64 | 1013.6 |
| 20260504004206 | 12 | 290 | 0.0 | 0.0 | 0.00 | 0.00 | 0.00 | 59 | 1013.4 |
| 20260504003706 | 12 | 290 | 0.0 | 0.0 | 0.00 | 0.00 | 0.00 | 55 | 1013.3 |
| 20260504003206 | 12 | 290 | 0.0 | 0.0 | 0.00 | 0.00 | 0.00 | 54 | 1013.3 |
| 20260504002706 | 12 | 290 | 0.0 | 0.0 | 0.00 | 0.00 | 0.00 | 55 | 1013.2 |
| 20260504002205 | 12 | 290 | 0.0 | 0.0 | 0.00 | 0.00 | 0.00 | 54 | 1013.2 |
| 20260504001205 | 12 | 290 | 0.0 | 1.6 | 0.00 | 0.00 | 0.00 | 49 | 1013.1 |
| 20260504000205 | 13 | 261 | 0.0 | 0.0 | 0.00 | 0.00 | 0.00 | 48 | 1013.1 |
| 20260503235705 | 13 | 261 | 0.0 | 0.0 | 0.00 | 0.00 | 0.00 | 46 | 1012.9 |
| 20260503235205 | 13 | 261 | 0.0 | 1.6 | 0.00 | 0.00 | 0.00 | 45 | 1012.9 |
| 20260503234205 | 13 | 261 | 0.0 | 3.2 | 0.00 | 0.00 | 0.00 | 43 | 1012.7 |
| 20260503233705 | 13 | 260 | 0.0 | 3.2 | 0.00 | 0.00 | 0.00 | 43 | 1012.7 |
| 20260503233205 | 14 | 258 | 0.0 | 4.8 | 0.00 | 0.00 | 0.00 | 42 | 1012.7 |
| 20260503232705 | 14 | 231 | 1.6 | 3.2 | 0.00 | 0.00 | 0.00 | 41 | 1012.8 |
| 20260503232205 | 14 | 273 | 1.6 | 4.8 | 0.00 | 0.00 | 0.00 | 42 | 1012.7 |
| 20260503231705 | 14 | 254 | 1.6 | 4.8 | 0.00 | 0.00 | 0.00 | 40 | 1012.7 |
| 20260503231205 | 14 | 227 | 3.2 | 8.0 | 0.00 | 0.00 | 0.00 | 40 | 1012.7 |
| 20260503230705 | 15 | 310 | 0.0 | 3.2 | 0.00 | 0.00 | 0.00 | 41 | 1012.7 |
| 20260503230205 | 15 | 277 | 1.6 | 11.3 | 0.00 | 0.00 | 0.00 | 40 | 1012.8 |
| 20260503225205 | 15 | 281 | 3.2 | 4.8 | 0.00 | 0.00 | 0.00 | 42 | 1012.7 |
| 20260503224705 | 15 | 310 | 1.6 | 4.8 | 0.00 | 0.00 | 0.00 | 40 | 1012.7 |
| 20260503224205 | 15 | 231 | 3.2 | 9.7 | 0.00 | 0.00 | 0.00 | 40 | 1012.7 |
| 20260503223705 | 15 | 269 | 1.6 | 9.7 | 0.00 | 0.00 | 0.00 | 39 | 1012.7 |
| 20260503223205 | 15 | 282 | 3.2 | 9.7 | 0.00 | 0.00 | 0.00 | 39 | 1012.7 |
| 20260503222705 | 15 | 295 | 1.6 | 4.8 | 0.00 | 0.00 | 0.00 | 39 | 1012.6 |
| 20260503222204 | 15 | 242 | 1.6 | 11.3 | 0.00 | 0.00 | 0.00 | 39 | 1012.7 |
| 20260503221705 | 15 | 247 | 3.2 | 4.8 | 0.00 | 0.00 | 0.00 | 37 | 1012.7 |
| 20260503221205 | 15 | 275 | 3.2 | 12.9 | 0.00 | 0.00 | 0.00 | 38 | 1012.8 |
| 20260503220705 | 15 | 281 | 4.8 | 16.1 | 0.00 | 0.00 | 0.00 | 38 | 1012.8 |
| 20260503220204 | 15 | 274 | 3.2 | 14.5 | 0.00 | 0.00 | 0.00 | 38 | 1012.9 |
| 20260503215706 | 16 | 256 | 3.2 | 12.9 | 0.00 | 0.00 | 0.00 | 37 | 1012.9 |
| 20260503215205 | 16 | 248 | 4.8 | 19.3 | 0.00 | 0.00 | 0.00 | 37 | 1012.8 |
| 20260503214705 | 16 | 229 | 4.8 | 12.9 | 0.00 | 0.00 | 0.00 | 35 | 1012.7 |
| 20260503214205 | 16 | 315 | 4.8 | 12.9 | 0.00 | 0.00 | 0.00 | 36 | 1012.7 |
| 20260503213205 | 17 | 266 | 8.0 | 20.9 | 0.00 | 0.00 | 0.00 | 34 | 1012.8 |
| 20260503212705 | 17 | 288 | 4.8 | 12.9 | 0.00 | 0.00 | 0.00 | 36 | 1012.8 |
| 20260503211705 | 17 | 219 | 9.7 | 19.3 | 0.00 | 0.00 | 0.00 | 34 | 1012.8 |
| 20260503211205 | 17 | 242 | 9.7 | 27.4 | 0.00 | 0.00 | 0.00 | 38 | 1012.7 |
| 20260503210205 | 17 | 251 | 6.4 | 22.5 | 0.00 | 0.00 | 0.00 | 35 | 1012.9 |
| 20260503205704 | 17 | 245 | 8.0 | 16.1 | 0.00 | 0.00 | 0.00 | 35 | 1012.8 |
| 20260503205205 | 17 | 237 | 3.2 | 8.0 | 0.00 | 0.00 | 0.00 | 41 | 1012.9 |
| 20260503204705 | 17 | 309 | 3.2 | 20.9 | 0.00 | 0.00 | 0.00 | 39 | 1012.9 |
| 20260503204205 | 17 | 338 | 3.2 | 11.3 | 0.00 | 0.00 | 0.00 | 37 | 1013.0 |
| 20260503203705 | 17 | 226 | 6.4 | 20.9 | 0.00 | 0.00 | 0.00 | 36 | 1013.0 |
| 20260503203205 | 17 | 242 | 6.4 | 20.9 | 0.00 | 0.00 | 0.00 | 35 | 1013.0 |
| 20260503202205 | 17 | 229 | 8.0 | 24.1 | 0.00 | 0.00 | 0.00 | 38 | 1013.1 |
| 20260503201205 | 17 | 242 | 8.0 | 25.7 | 0.00 | 0.00 | 0.00 | 40 | 1013.3 |
| 20260503200705 | 16 | 210 | 9.7 | 19.3 | 0.00 | 0.00 | 0.00 | 40 | 1013.3 |
| 20260503195705 | 16 | 215 | 9.7 | 22.5 | 0.00 | 0.00 | 0.00 | 39 | 1013.5 |
| 20260503195205 | 16 | 211 | 9.7 | 22.5 | 0.00 | 0.00 | 0.00 | 39 | 1013.4 |
| 20260503194705 | 16 | 263 | 8.0 | 22.5 | 0.00 | 0.00 | 0.00 | 38 | 1013.6 |
| 20260503194205 | 16 | 344 | 3.2 | 12.9 | 0.00 | 0.00 | 0.00 | 37 | 1013.5 |
| 20260503193705 | 16 | 346 | 8.0 | 22.5 | 0.00 | 0.00 | 0.00 | 38 | 1013.7 |
| 20260503193205 | 16 | 304 | 3.2 | 16.1 | 0.00 | 0.00 | 0.00 | 41 | 1013.7 |
| 20260503192705 | 16 | 352 | 9.7 | 24.1 | 0.00 | 0.00 | 0.00 | 42 | 1013.9 |
| 20260503191205 | 16 | 230 | 11.3 | 19.3 | 0.00 | 0.00 | 0.00 | 40 | 1013.9 |
| 20260503190705 | 16 | 107 | 6.4 | 24.1 | 0.00 | 0.00 | 0.00 | 43 | 1013.9 |
| 20260503185705 | 16 | 216 | 11.3 | 22.5 | 0.00 | 0.00 | 0.00 | 40 | 1014.1 |
| 20260503184704 | 16 | 348 | 9.7 | 19.3 | 0.00 | 0.00 | 0.00 | 39 | 1014.2 |
| 20260503184205 | 16 | 234 | 16.1 | 32.2 | 0.00 | 0.00 | 0.00 | 42 | 1014.2 |
| 20260503183705 | 15 | 230 | 17.7 | 27.4 | 0.00 | 0.00 | 0.00 | 40 | 1014.3 |
| 20260503183205 | 15 | 242 | 14.5 | 32.2 | 0.00 | 0.00 | 0.00 | 39 | 1014.3 |
| 20260503182705 | 15 | 246 | 14.5 | 22.5 | 0.00 | 0.00 | 0.00 | 40 | 1014.3 |
| 20260503181705 | 15 | 303 | 8.0 | 22.5 | 0.00 | 0.00 | 0.00 | 39 | 1014.3 |
| 20260503181204 | 15 | 305 | 8.0 | 22.5 | 0.00 | 0.00 | 0.00 | 46 | 1014.3 |
| 20260503180205 | 15 | 230 | 8.0 | 20.9 | 0.00 | 0.00 | 0.00 | 41 | 1014.3 |
| 20260503175205 | 14 | 351 | 11.3 | 20.9 | 0.00 | 0.00 | 0.00 | 41 | 1014.3 |
| 20260503174705 | 14 | 343 | 12.9 | 27.4 | 0.00 | 0.00 | 0.00 | 41 | 1014.4 |
| 20260503174205 | 14 | 329 | 4.8 | 19.3 | 0.00 | 0.00 | 0.00 | 44 | 1014.3 |
| 20260503173705 | 14 | 1 | 14.5 | 20.9 | 0.00 | 0.00 | 0.00 | 38 | 1014.3 |
| 20260503173205 | 15 | 336 | 11.3 | 24.1 | 0.00 | 0.00 | 0.00 | 38 | 1014.6 |
| 20260503172705 | 14 | 353 | 4.8 | 14.5 | 0.00 | 0.00 | 0.00 | 41 | 1014.6 |
| 20260503172205 | 14 | 353 | 9.7 | 19.3 | 0.00 | 0.00 | 0.00 | 38 | 1014.6 |
| 20260503171704 | 14 | 331 | 1.6 | 19.3 | 0.00 | 0.00 | 0.00 | 40 | 1014.6 |
| 20260503171205 | 14 | 14 | 4.8 | 14.5 | 0.00 | 0.00 | 0.00 | 45 | 1014.6 |
| 20260503170705 | 14 | 254 | 4.8 | 12.9 | 0.00 | 0.00 | 0.00 | 40 | 1014.7 |
| 20260503170205 | 13 | 243 | 11.3 | 20.9 | 0.00 | 0.00 | 0.00 | 40 | 1014.7 |
| 20260503160205 | 13 | 330 | 11.3 | 19.3 | 0.00 | 0.00 | 0.00 | 41 | 1015.1 |
| 20260503150704 | 12 | 14 | 4.8 | 20.9 | 0.00 | 0.00 | 0.00 | 47 | 1015.1 |
| 20260503150205 | 12 | 313 | 9.7 | 16.1 | 0.00 | 0.00 | 0.00 | 44 | 1015.2 |
| 20260503140205 | 11 | 326 | 11.3 | 22.5 | 0.00 | 0.00 | 0.00 | 49 | 1015.2 |
| 20260503131205 | 10 | 321 | 11.3 | 24.1 | 0.00 | 0.00 | 0.00 | 53 | 1015.1 |
| 20260503130704 | 10 | 309 | 9.7 | 22.5 | 0.00 | 0.00 | 0.00 | 56 | 1015.1 |
| 20260503130205 | 10 | 156 | 6.4 | 16.1 | 0.00 | 0.00 | 0.00 | 55 | 1015.0 |
| 20260503120205 | 8 | 310 | 6.4 | 19.3 | 0.00 | 0.00 | 0.00 | 59 | 1014.4 |